Flag Weather past 2 weeks in Mashhad, Iran

Now
36 °F

Fog.


Feels Like: 32 °F
Forecast: 27 / 43 °F
Wind: 5 mph from East

Location: Mashhad Airport

Current Time: Nov 26, 2014 at 9:33:49 PM

Latest Report: Nov 26, 2014 at 8:55 PM


Visibility: 0 mi

Pressure: 30.09 "Hg

Humidity: 100%

Dew point: 36 °F

Location of MashhadLocation

Historic Weather in Mashhad — Graph

°F

Mashhad temperature yesterday

Maximum temperature yesterday: 43 °F (at 12:00 AM)
Minimum temperature yesterday: 36 °F (at 8:30 PM)
Average temperature yesterday: 40 °F

Past Weeks' High & Low Weather Summary

 TemperatureHumidityPressure
High70 °F (Nov 16, 2:30 PM)100% (Nov 12, 3:00 AM)30.39 "Hg (Nov 12, 3:00 AM)
Low32 °F (Nov 12, 6:00 AM)17% (Nov 16, 2:30 PM)29.80 "Hg (Nov 23, 2:00 PM)
Average46 °F69%30.20 "Hg
* Reported Nov 11 8:30 PM — Nov 26 8:30 PM, Mashhad, Weather by CustomWeather, © 2014

Note: Actual official high and low records may vary slightly from our data, if they occured in-between our weather recording intervals... More about our weather records

Advertising

Mashhad weather history for previous 24 hours

 ConditionsComfort  
Time TempWeatherWind HumidityBarometerVisibility
8:30 PM
Nov 26
37 °FFog.7 mph100%30.09 "Hg1 mi
8:00 PM37 °FFog.5 mph100%30.09 "Hg3 mi
7:30 PM39 °FPassing clouds.5 mph100%30.07 "Hg4 mi
7:00 PM39 °FPassing clouds.7 mph100%30.07 "Hg4 mi
6:30 PM39 °FPartly cloudy.7 mph100%30.07 "Hg4 mi
6:00 PM39 °FFog.5 mph100%30.07 "Hg3 mi
5:30 PM41 °FPartly cloudy.No wind100%30.07 "Hg4 mi
5:00 PM41 °FPartly cloudy.7 mph93%30.07 "Hg4 mi
4:30 PM41 °FPartly sunny.5 mph93%30.07 "Hg4 mi
3:55 PM41 °FMostly cloudy.No wind93%30.07 "Hg4 mi
3:30 PM39 °FMostly cloudy.9 mph100%30.04 "Hg4 mi
2:55 PM39 °FMostly cloudy.5 mph100%30.04 "Hg4 mi
2:30 PM39 °FMostly cloudy.5 mph100%30.01 "HgN/A
2:00 PM39 °FMostly cloudy.No wind100%30.01 "HgN/A
1:30 PM39 °FMostly cloudy.5 mph100%30.01 "HgN/A
1:00 PM39 °FMostly cloudy.5 mph100%30.01 "HgN/A
12:30 PM39 °FMostly cloudy.7 mph100%30.01 "Hg5 mi
12:00 PM39 °FLight rain. Mostly cloudy.5 mph100%30.01 "Hg4 mi
11:30 AM37 °FMostly cloudy.5 mph100%30.01 "HgN/A
11:00 AM37 °FLight rain. Mostly cloudy.5 mph100%30.01 "Hg4 mi
10:30 AM37 °FLight rain. Fog.5 mph100%30.04 "Hg3 mi
10:00 AM37 °FRain. Fog.7 mph100%30.04 "Hg3 mi
9:30 AM37 °FRain. Fog.7 mph100%30.07 "Hg2 mi
9:00 AM37 °FRain. Fog.5 mph100%30.07 "Hg1 mi
8:30 AM37 °FLight rain. Fog.5 mph100%30.07 "Hg2 mi
8:00 AM37 °FLight rain. Fog.5 mph100%30.07 "Hg2 mi
7:30 AM37 °FLight rain. Mostly cloudy.5 mph100%30.07 "Hg3 mi
7:00 AM37 °FLight rain. Mostly cloudy.5 mph100%30.07 "Hg3 mi
6:30 AM37 °FLight rain. Mostly cloudy.5 mph100%30.07 "Hg4 mi
6:00 AM37 °FLow clouds.7 mph100%30.07 "HgN/A
5:30 AM37 °FLow clouds.5 mph100%30.07 "HgN/A
5:00 AM37 °FLow clouds.No wind100%30.07 "HgN/A
4:30 AM37 °FLow clouds.5 mph100%30.09 "HgN/A
3:50 AM37 °FLow clouds.5 mph100%30.09 "HgN/A
3:20 AM37 °FLow clouds.5 mph100%30.09 "HgN/A
3:00 AM37 °FLow clouds.5 mph100%30.12 "HgN/A
2:30 AM37 °FLow clouds.5 mph100%30.15 "HgN/A
2:00 AM37 °FLow clouds.No wind100%30.15 "HgN/A
1:30 AM37 °FLow clouds.5 mph100%30.15 "HgN/A
1:00 AM37 °FLow clouds.5 mph100%30.15 "HgN/A
12:30 AM37 °FLow clouds.5 mph100%30.18 "HgN/A
12:00 AM37 °FLow clouds.No wind100%30.18 "HgN/A
11:30 PM
Nov 25
37 °FLow clouds.5 mph100%30.21 "Hg5 mi
11:00 PM37 °FMostly cloudy.5 mph100%30.21 "HgN/A
10:30 PM36 °FDrizzle. Mostly cloudy.5 mph100%30.21 "Hg4 mi
10:00 PM37 °FRain showers. Mostly cloudy.5 mph100%30.24 "Hg4 mi
9:30 PM36 °FDrizzle. Mostly cloudy.5 mph100%30.24 "Hg4 mi
9:00 PM36 °FDrizzle. Mostly cloudy.5 mph100%30.27 "Hg5 mi
Weather by CustomWeather, © 2014

See weather overviewHow to use our weather pages